Leadville, CO

10:51 AM MST on November 20, 2019 (GMT -0700)
Lake County

Weather History for KLXV - September, 2019

Change the Weather History Date:

Saturday, September 21, 2019

  Actual Average Record
Temperature  
Mean Temperature 44 °F -  
Max Temperature 58 °F 59 °F 72 °F (2015)
Min Temperature 29 °F 30 °F 9 °F (1978)
Degree Days  
Heating Degree Days 21 21  
Month to date heating degree days 293 375  
Since 1 July heating degree days 886 1097  
Cooling Degree Days 0 0  
Month to date cooling degree days 0 0  
Year to date cooling degree days 0 0  
Moisture  
Dew Point 13 °F    
Average Humidity 31    
Maximum Humidity 47    
Minimum Humidity 14    
Precipitation  
Precipitation 0.00 in 0.03 in 0.54 in (2000)
Month to date precipitation 0.31 0.81  
Year to date precipitation 12.85 9.76  
Sea Level Pressure  
Sea Level Pressure 29.83 in    
Wind  
Wind Speed 9 mph (NE)    
Max Wind Speed 24 mph    
Max Gust Speed 36 mph    
Visibility 10 miles    
Events      
T = Trace of Precipitation, MM = Missing Value Source: NWS Daily Summary

Daily Weather History Graph

Daily Weather History Graph

Search for Another Location

Airport or City:

Astronomy

Sep. 21, 2019 Rise Set
Actual Time 6:51 AM MDT 7:04 PM MDT
Civil Twilight 6:25 AM MDT 7:30 PM MDT
Nautical Twilight 5:53 AM MDT 8:02 PM MDT
Astronomical Twilight 5:21 AM MDT 8:33 PM MDT
Moon 11:46 PM MDT (9/21) 1:58 PM MDT (9/21)
Length of Visible Light 13h 05m
Length of Day
12h 12m
Waning Gibbous, 54% of the Moon is Illuminated
Sep 21
Waning Gibbous
Sep 21
Last Quarter
Sep 28
New
Oct 5
First Quarter
Oct 13
Full

Hourly Weather History & Observations

Time (MDT) Temp. Windchill Dew Point Humidity Pressure Visibility Wind Dir Wind Speed Gust Speed Precip Events Conditions
12:53 AM 35.1 °F 29.3 °F 15.1 °F 44% 29.78 in 10.0 mi ENE 6.9 mph - N/A   Clear
1:53 AM 35.1 °F 27.9 °F 12.0 °F 39% 29.77 in 10.0 mi ENE 9.2 mph - N/A   Clear
2:53 AM 33.1 °F 26.9 °F 12.0 °F 42% 29.78 in 10.0 mi East 6.9 mph - N/A   Clear
3:53 AM 34.0 °F 28.8 °F 14.0 °F 44% 29.80 in 10.0 mi East 5.8 mph - N/A   Clear
4:53 AM 35.1 °F 28.6 °F 12.9 °F 40% 29.80 in 10.0 mi ENE 8.1 mph - N/A   Clear
5:53 AM 39.9 °F - 12.0 °F 32% 29.81 in 10.0 mi Calm Calm - N/A   Clear
6:53 AM 35.1 °F 30.1 °F 12.0 °F 39% 29.85 in 10.0 mi ENE 5.8 mph - N/A   Clear
7:53 AM 39.0 °F 34.8 °F 12.9 °F 34% 29.87 in 10.0 mi ENE 5.8 mph - N/A   Clear
8:53 AM 48.0 °F - 12.0 °F 24% 29.83 in 10.0 mi Calm Calm - N/A   Clear
9:53 AM 48.9 °F - 10.9 °F 22% 29.82 in 10.0 mi North - - N/A   Clear
10:53 AM 53.1 °F - 9.0 °F 17% 29.83 in 10.0 mi South 12.7 mph 21.9 mph N/A   Clear
11:53 AM 55.0 °F - 7.0 °F 15% 29.83 in 10.0 mi SSW 11.5 mph 26.5 mph N/A   Clear
12:53 PM 55.9 °F - 7.0 °F 14% 29.81 in 10.0 mi South 13.8 mph 21.9 mph N/A   Clear
1:53 PM 57.0 °F - 10.9 °F 16% 29.80 in 10.0 mi South 20.7 mph 31.1 mph N/A   Clear
2:53 PM 57.0 °F - 12.0 °F 17% 29.81 in 10.0 mi WSW 9.2 mph 36.8 mph N/A   Mostly Cloudy
3:53 PM 54.0 °F - 10.9 °F 18% 29.82 in 10.0 mi NNW 13.8 mph 20.7 mph N/A   Mostly Cloudy
4:53 PM 53.1 °F - 10.9 °F 19% 29.82 in 10.0 mi NNW 10.4 mph 21.9 mph N/A   Mostly Cloudy
5:53 PM 50.0 °F - 15.1 °F 25% 29.82 in 10.0 mi NNW 13.8 mph 23.0 mph N/A   Mostly Cloudy
6:53 PM 46.9 °F - 15.1 °F 28% 29.91 in 10.0 mi NNW 8.1 mph 26.5 mph N/A   Mostly Cloudy
7:53 PM 44.1 °F 40.8 °F 18.0 °F 35% 29.91 in 10.0 mi North 5.8 mph - N/A   Clear
8:53 PM 41.0 °F 37.1 °F 16.0 °F 36% 29.88 in 10.0 mi NNE 5.8 mph - N/A   Clear
9:53 PM 37.9 °F 32.1 °F 16.0 °F 41% 29.90 in 10.0 mi NE 8.1 mph - N/A   Clear
10:53 PM 34.0 °F 28.8 °F 15.1 °F 46% 29.89 in 10.0 mi NE 5.8 mph - N/A   Partly Cloudy
11:53 PM 33.1 °F 27.7 °F 15.1 °F 48% 29.90 in 10.0 mi ENE 5.8 mph - N/A   Clear